CZ-6A DEB, 54558

Orbit data source: Space-Track

CZ-6A DEB, 54558 is space debris in SSO originally from a launch on Fri, 11 Nov 2022 UTC launched from the Taiyaun Space Center, China (TSC). Debris objects in space refer to the collection of defunct objects orbiting the Earth. Examples of debris include non-operational satellites, rocket bodies, and fragments generated from explosions, collisions, or faulty payload assembly.

Loading next visibility...
Identifier
54558, 2022-151LJ
Orbit
SSO
Country
Flag of CNCN / PRC
Related business
Manufacturer
SAST
Mission
Spacecraft
Bus & Motor
Unknown
Mass
Unknown
Launch date (UTC)
2022-11-11 (4 years ago)
Launch vehicle
Unknown
Launch site
Taiyaun Space Center, China (TSC)
Object type
Payload
Rocket body
Debris
Shape & HBR
Unknown shape, 0.1 m
Radar Cross Section
Medium (>0.1 m² and <1 m²)

Expand to show TLE details & history
Last TLE update: 2 days ago

TLE from 2 days ago
0 CZ-6A DEB
1 54558U 22151LJ  26170.99458750  .00000546  00000-0  27506-3 0  9999
2 54558  98.7893 184.8140 0054937 346.9411  13.0339 14.19690859186168
Epoch: 2026-06-19T23:52Z
TLE epoch observation values (Epoch: 2026-06-19T23:52:12.359Z)
Latitude
-0.00004°
Longitude
-81.45307°
Altitude
790.754 km
Speed
7.478 km/s
True Right ascension
12h 19m 15s
True Declination
0° 00' 00"
Sunlit
Object was in daylight at epoch
Visualization orbit readout
Latitude
Unknown
Longitude
Unknown
Altitude
Unknown
Speed
Unknown
Apparent Right ascension
Unknown
Apparent Declination
Unknown
Sunlit
N/A
Visualization observer readout
Local Sidereal Time
21:35:53
Azimuth
Unknown
Elevation
Unknown
Doppler factor
Unknown
Orbital elements
Apogee altitude
863.125 km
Perigee altitude
783.997 km
Semi-major axis
7,201.698 km
Eccentricity
0.00549
Inclination
98.7893°
RAAN
184.814°
Arg. of periapsis
346.9411°
True anomaly
13.17683°
Mean anomaly
13.0339°
Eccentric anomaly
13.10527°
Mean motion
3.55133 °/min
Orbital period
101.37 mins
BSTAR
0.00027506
Loading maneuver chart data...
Computing Atmospheric mass density...
Loading historical data...
Loading historical data...
Loading historical data...
Loading historical data...
Loading historical data...
Loading historical data...
Loading historical data...

Documentation

Showing up to 5 results
|